Weather in Pagadian

Philippines     7°47′59″N   123°23′17″E
temp.,
°C
wind,
m/s
gust,
m/s
humid.,
%
clouds,
%
prec.,
mm/h
press.,
hPa
HPBL,
m
13 may, thu
thu1323:00+26nne118699 1.9 1009113
02:00+26n228869 1.9 1007118
05:00+25nne228874 0.0 1007135
08:00+27nne238116 0.0 1009337
11:00+30e12656 0.0 1007642
14:00+30se336894 0.0 1005712
17:00+29ene147433 1.1 1005369
20:00+27nne238291 1.1 1007172
14 may, fri
fri1423:00+26n228424 0.0 1008137
02:00+26nnw2286100 0.0 1006113
05:00+25n2287100 0.0 1007134
08:00+27nne2279100 0.1 1008333
11:00+30sse216999 0.3 1007675
14:00+28sse3378100 4.6 1005374
17:00+28s1277100 4.6 1006310
20:00+27ese118295 8.4 100863
15 may, sat
sat1523:00+26se238655 0.4 1009269
02:00+25ese1188100 7.4 100788
05:00+26n0188100 3.3 1007133
08:00+26nw1186100 4.4 1009207
11:00+28ne1178100 0.0 1008403
14:00+28n117885 0.1 1006209
17:00+29ese017362 0.1 1006147
20:00+26n228756 1.3 100896
16 may, sun
sun1623:00+26n228733 0.4 1008116
02:00+26nnw11876 0.4 1006120
05:00+25n228846 0.0 1007125
08:00+27nne228097 0.0 1008284
11:00+30e026786 0.0 1007555
14:00+30se3270100 0.4 1005520
17:00+29ne127879 3.3 1005165
20:00+27n2384100 3.6 1007131
17 may, mon
mon1723:00+26n228514 0.4 1007114
02:00+26n2286100 1.1 1006106
05:00+26nne118713 0.8 1007102
08:00+27nne1181100 0.8 1008344
11:00+30sse1168100 0.0 1007654
14:00+30se2167100 1.5 1005514
17:00+28nne1179100 5.3 100548
20:00+27n2383100 12.8 1007125